| time (UTC) | temp F | wind direction | speed MPH | gust MPH | rain 1hr in | rain 24hr in | rain mn in | humidity % | barometer mb |
| 20260505041614 | 67 | 0 | 0.0 | 0.0 | 0.00 | 0.00 | 0.00 | 83 | 1016.3 |
| 20260505040109 | 67 | 108 | 0.0 | 3.0 | 0.00 | 0.00 | 0.00 | 83 | 1016.3 |
| 20260505034601 | 67 | 0 | 0.0 | 4.0 | 0.00 | 0.00 | 0.00 | 82 | 1016.2 |
| 20260505033109 | 68 | 86 | 2.0 | 5.0 | 0.00 | 0.00 | 0.00 | 82 | 1016.4 |
| 20260505031608 | 68 | 89 | 2.0 | 4.0 | 0.00 | 0.00 | 0.00 | 81 | 1016.4 |
| 20260505030113 | 68 | 84 | 1.0 | 6.0 | 0.00 | 0.00 | 0.00 | 81 | 1016.3 |
| 20260505024607 | 68 | 83 | 2.0 | 4.0 | 0.00 | 0.00 | 0.00 | 80 | 1016.4 |
| 20260505023058 | 68 | 0 | 1.0 | 4.0 | 0.00 | 0.00 | 0.00 | 80 | 1016.3 |
| 20260505021607 | 69 | 77 | 1.0 | 4.0 | 0.00 | 0.00 | 0.00 | 79 | 1016.3 |
| 20260505014609 | 70 | 101 | 2.0 | 6.0 | 0.00 | 0.00 | 0.00 | 77 | 1016.0 |
| 20260505013059 | 70 | 104 | 3.0 | 6.0 | 0.00 | 0.00 | 0.00 | 76 | 1015.8 |
| 20260505011607 | 70 | 91 | 3.0 | 8.0 | 0.00 | 0.00 | 0.00 | 75 | 1015.9 |
| 20260505010100 | 71 | 75 | 3.0 | 7.0 | 0.00 | 0.00 | 0.00 | 73 | 1015.6 |
| 20260505004558 | 71 | 112 | 3.0 | 7.0 | 0.00 | 0.00 | 0.00 | 73 | 1015.6 |
| 20260505003059 | 72 | 94 | 4.0 | 9.0 | 0.00 | 0.00 | 0.00 | 72 | 1015.5 |
| 20260505001559 | 72 | 133 | 6.0 | 11.0 | 0.00 | 0.00 | 0.00 | 70 | 1015.3 |
| 20260505000116 | 73 | 95 | 5.0 | 11.0 | 0.00 | 0.00 | 0.00 | 70 | 1014.9 |
| 20260504234602 | 74 | 96 | 5.0 | 9.0 | 0.00 | 0.00 | 0.00 | 68 | 1014.9 |
| 20260504233112 | 74 | 111 | 6.0 | 12.0 | 0.00 | 0.00 | 0.00 | 67 | 1014.7 |
| 20260504231601 | 75 | 85 | 5.0 | 13.0 | 0.00 | 0.00 | 0.00 | 65 | 1014.6 |
| 20260504230100 | 76 | 124 | 8.0 | 17.0 | 0.00 | 0.00 | 0.00 | 65 | 1014.6 |
| 20260504224609 | 77 | 132 | 6.0 | 12.0 | 0.00 | 0.00 | 0.00 | 64 | 1014.6 |
| 20260504223134 | 77 | 127 | 5.0 | 12.0 | 0.00 | 0.00 | 0.00 | 63 | 1014.7 |
| 20260504221558 | 77 | 98 | 7.0 | 13.0 | 0.00 | 0.00 | 0.00 | 62 | 1014.7 |
| 20260504220059 | 77 | 162 | 8.0 | 15.0 | 0.00 | 0.00 | 0.00 | 63 | 1014.6 |
| 20260504214558 | 78 | 109 | 7.0 | 14.0 | 0.00 | 0.00 | 0.00 | 62 | 1014.8 |
| 20260504213106 | 78 | 101 | 5.0 | 14.0 | 0.00 | 0.00 | 0.00 | 62 | 1014.6 |
| 20260504211602 | 78 | 113 | 9.0 | 20.0 | 0.00 | 0.00 | 0.00 | 61 | 1014.5 |
| 20260504204557 | 79 | 56 | 8.0 | 14.0 | 0.00 | 0.00 | 0.00 | 59 | 1014.5 |
| 20260504203111 | 80 | 86 | 6.0 | 13.0 | 0.00 | 0.00 | 0.00 | 57 | 1014.7 |
| 20260504201601 | 81 | 62 | 5.0 | 11.0 | 0.00 | 0.00 | 0.00 | 56 | 1014.5 |
| 20260504200126 | 80 | 160 | 7.0 | 16.0 | 0.00 | 0.00 | 0.00 | 55 | 1014.8 |
| 20260504194603 | 81 | 72 | 6.0 | 12.0 | 0.00 | 0.00 | 0.00 | 54 | 1015.1 |
| 20260504193101 | 80 | 93 | 6.0 | 13.0 | 0.00 | 0.00 | 0.00 | 56 | 1015.3 |
| 20260504191603 | 81 | 84 | 6.0 | 13.0 | 0.00 | 0.00 | 0.00 | 54 | 1015.3 |
| 20260504190105 | 81 | 62 | 5.0 | 13.0 | 0.00 | 0.00 | 0.00 | 53 | 1015.4 |
| 20260504184600 | 80 | 73 | 6.0 | 14.0 | 0.00 | 0.00 | 0.00 | 54 | 1015.8 |
| 20260504183100 | 81 | 107 | 3.0 | 10.0 | 0.00 | 0.00 | 0.00 | 52 | 1016.0 |
| 20260504181605 | 80 | 89 | 4.0 | 13.0 | 0.00 | 0.00 | 0.00 | 50 | 1016.1 |
| 20260504174614 | 80 | 105 | 9.0 | 17.0 | 0.00 | 0.00 | 0.00 | 51 | 1016.4 |
| 20260504173101 | 79 | 82 | 6.0 | 13.0 | 0.00 | 0.00 | 0.00 | 52 | 1016.5 |
| 20260504171611 | 79 | 54 | 6.0 | 18.0 | 0.00 | 0.00 | 0.00 | 50 | 1016.6 |
| 20260504160109 | 78 | 36 | 6.0 | 17.0 | 0.00 | 0.00 | 0.00 | 51 | 1017.5 |
| 20260504150113 | 75 | 41 | 10.0 | 17.0 | 0.00 | 0.00 | 0.00 | 59 | 1017.5 |
| 20260504120105 | 66 | 29 | 3.0 | 8.0 | 0.00 | 0.00 | 0.00 | 82 | 1016.7 |
| 20260504090110 | 63 | 0 | 1.0 | 3.0 | 0.00 | 0.00 | 0.00 | 89 | 1015.8 |
| 20260504081600 | 64 | 341 | 2.0 | 4.0 | 0.00 | 0.01 | 0.00 | 88 | 1015.8 |
| 20260504044605 | 67 | 41 | 0.0 | 1.0 | 0.00 | 0.07 | 0.00 | 83 | 1017.1 |